User: anonymous   Login
Location: Coleto Creek Park and Reservoir
(28.7196°N, 97.1740°W)
Time: 01:17:22
(UTC-05:00)
Language:

Hubble Space Telescope - Orbit

View from above orbital plane
View from above orbital plane
View from above satellite
View from above satellite

Ground track
Ground track

The orbit data is extracted from the following two-line orbital elements,

1 20580U 90037B   16177.23942660  .00000499  00000-0  20049-4 0  9999
2 20580  28.4688 205.5437 0002531 297.1191 134.6696 15.08403528236327
Epoch (UTC): 25 June 2016 05:44:46
Eccentricity: 0.0002531
inclination: 28.4688°
perigee height: 539 km
apogee height: 543 km
right ascension of ascending node: 205.5437°
argument of perigee: 297.1191°
revolutions per day: 15.08403528
mean anomaly at epoch: 134.6696°
orbit number at epoch: 23632

The dashed part of the orbit path shows where the satellite is in the earth's shadow,  

DLR